| time (UTC) | temp F | wind direction | speed knots | gust knots | rain 1hr in | rain 24hr in | rain mn in | humidity % | barometer mb |
| 20260510164546 | 75 | 301 | 0.0 | 1.7 | 0.03 | 0.56 | 0.25 | 90 | 1016.3 |
| 20260510163041 | 73 | 0 | 0.0 | 1.7 | 0.02 | 0.55 | 0.24 | 93 | 1016.5 |
| 20260510161546 | 73 | 311 | 0.0 | 2.6 | 0.03 | 0.55 | 0.24 | 94 | 1016.6 |
| 20260510160101 | 72 | 36 | 0.0 | 2.6 | 0.02 | 0.54 | 0.23 | 94 | 1016.7 |
| 20260510154556 | 72 | 0 | 0.0 | 0.9 | 0.02 | 0.56 | 0.22 | 96 | 1016.5 |
| 20260510153045 | 71 | 264 | 0.0 | 0.0 | 0.02 | 0.56 | 0.22 | 97 | 1016.7 |
| 20260510151541 | 70 | 0 | 0.0 | 0.9 | 0.02 | 0.55 | 0.21 | 97 | 1016.7 |
| 20260510150043 | 69 | 0 | 0.0 | 0.9 | 0.02 | 0.55 | 0.21 | 97 | 1016.5 |
| 20260510144558 | 69 | 0 | 0.0 | 0.9 | 0.02 | 0.57 | 0.20 | 98 | 1016.6 |
| 20260510143041 | 68 | 0 | 0.0 | 1.7 | 0.02 | 0.57 | 0.20 | 97 | 1016.6 |
| 20260510141545 | 68 | 0 | 0.0 | 0.9 | 0.02 | 0.56 | 0.19 | 98 | 1016.6 |
| 20260510140045 | 67 | 0 | 0.0 | 0.0 | 0.02 | 0.56 | 0.19 | 98 | 1016.6 |
| 20260510134553 | 67 | 0 | 0.0 | 0.0 | 0.02 | 0.58 | 0.18 | 98 | 1016.5 |
| 20260510133046 | 66 | 0 | 0.0 | 0.0 | 0.02 | 0.58 | 0.18 | 98 | 1016.5 |
| 20260510131547 | 66 | 0 | 0.0 | 0.9 | 0.02 | 0.57 | 0.17 | 98 | 1016.2 |
| 20260510130047 | 65 | 0 | 0.0 | 0.0 | 0.02 | 0.57 | 0.17 | 97 | 1015.9 |
| 20260510124557 | 65 | 0 | 0.0 | 0.0 | 0.02 | 0.58 | 0.16 | 97 | 1015.8 |
| 20260510123045 | 65 | 0 | 0.0 | 0.0 | 0.02 | 0.58 | 0.16 | 97 | 1015.6 |
| 20260510121551 | 65 | 0 | 0.0 | 0.0 | 0.02 | 0.58 | 0.15 | 97 | 1015.4 |
| 20260510120041 | 65 | 0 | 0.0 | 0.0 | 0.02 | 0.58 | 0.15 | 97 | 1015.1 |
| 20260510114538 | 64 | 0 | 0.0 | 0.0 | 0.02 | 0.58 | 0.14 | 97 | 1014.6 |
| 20260510113045 | 65 | 0 | 0.0 | 0.0 | 0.02 | 0.58 | 0.14 | 97 | 1014.3 |
| 20260510111534 | 64 | 0 | 0.0 | 0.0 | 0.02 | 0.57 | 0.13 | 97 | 1013.9 |
| 20260510110046 | 64 | 0 | 0.0 | 0.0 | 0.02 | 0.57 | 0.13 | 97 | 1013.7 |
| 20260510104544 | 65 | 0 | 0.0 | 0.0 | 0.02 | 0.57 | 0.12 | 97 | 1013.4 |
| 20260510103041 | 65 | 0 | 0.0 | 0.0 | 0.02 | 0.57 | 0.12 | 97 | 1013.2 |
| 20260510101549 | 65 | 0 | 0.0 | 0.0 | 0.02 | 0.56 | 0.11 | 97 | 1013.1 |
| 20260510100045 | 65 | 0 | 0.0 | 0.0 | 0.02 | 0.56 | 0.11 | 97 | 1013.0 |
| 20260510094554 | 65 | 0 | 0.0 | 0.0 | 0.02 | 0.58 | 0.10 | 97 | 1012.9 |
| 20260510093059 | 65 | 0 | 0.0 | 0.0 | 0.02 | 0.58 | 0.10 | 97 | 1013.0 |
| 20260510091545 | 65 | 0 | 0.0 | 0.0 | 0.02 | 0.57 | 0.09 | 97 | 1012.9 |
| 20260510090042 | 65 | 0 | 0.0 | 0.0 | 0.02 | 0.57 | 0.09 | 97 | 1013.1 |
| 20260510084539 | 65 | 0 | 0.0 | 0.0 | 0.02 | 0.58 | 0.08 | 97 | 1013.0 |
| 20260510083037 | 65 | 0 | 0.0 | 0.0 | 0.02 | 0.58 | 0.08 | 97 | 1013.0 |
| 20260510081546 | 66 | 0 | 0.0 | 0.0 | 0.02 | 0.58 | 0.07 | 97 | 1012.9 |
| 20260510080036 | 66 | 0 | 0.0 | 0.0 | 0.03 | 0.58 | 0.07 | 97 | 1012.9 |
| 20260510074543 | 66 | 0 | 0.0 | 0.0 | 0.02 | 0.61 | 0.06 | 97 | 1012.8 |
| 20260510073045 | 66 | 0 | 0.0 | 0.0 | 0.03 | 0.61 | 0.06 | 97 | 1012.5 |
| 20260510071548 | 66 | 0 | 0.0 | 0.0 | 0.02 | 0.60 | 0.05 | 97 | 1012.1 |
| 20260510070039 | 66 | 0 | 0.0 | 0.0 | 0.02 | 0.58 | 0.04 | 97 | 1012.4 |
| 20260510064543 | 66 | 0 | 0.0 | 0.0 | 0.02 | 0.64 | 0.04 | 97 | 1012.5 |
| 20260510063045 | 66 | 0 | 0.0 | 0.0 | 0.02 | 0.63 | 0.03 | 97 | 1012.5 |
| 20260510061542 | 67 | 0 | 0.0 | 0.0 | 0.03 | 0.63 | 0.03 | 97 | 1012.7 |
| 20260510060042 | 67 | 0 | 0.0 | 0.0 | 0.02 | 0.62 | 0.02 | 97 | 1012.8 |
| 20260510054545 | 67 | 0 | 0.0 | 0.0 | 0.03 | 0.68 | 0.02 | 97 | 1012.8 |
| 20260510053058 | 66 | 0 | 0.0 | 0.0 | 0.02 | 0.67 | 0.01 | 97 | 1012.9 |
| 20260510051549 | 66 | 0 | 0.0 | 0.0 | 0.02 | 0.66 | 0.00 | 97 | 1012.8 |
| 20260510050045 | 66 | 0 | 0.0 | 0.0 | 0.03 | 0.66 | 0.00 | 97 | 1013.0 |
| 20260510044540 | 66 | 0 | 0.0 | 0.0 | 0.02 | 0.73 | 0.65 | 97 | 1012.8 |
| 20260510043045 | 66 | 0 | 0.0 | 0.0 | 0.03 | 0.73 | 0.65 | 97 | 1012.8 |
| 20260510041540 | 66 | 0 | 0.0 | 0.0 | 0.02 | 0.72 | 0.64 | 97 | 1012.7 |
| 20260510040048 | 66 | 0 | 0.0 | 0.0 | 0.02 | 0.71 | 0.63 | 97 | 1012.5 |
| 20260510034554 | 67 | 0 | 0.0 | 0.0 | 0.03 | 0.81 | 0.63 | 97 | 1012.6 |
| 20260510033050 | 67 | 0 | 0.0 | 0.0 | 0.02 | 0.80 | 0.62 | 97 | 1012.8 |
| 20260510031548 | 67 | 0 | 0.0 | 0.0 | 0.03 | 0.80 | 0.62 | 97 | 1012.6 |
| 20260510030040 | 67 | 0 | 0.0 | 0.0 | 0.02 | 0.79 | 0.61 | 97 | 1013.1 |
| 20260510024541 | 67 | 0 | 0.0 | 0.0 | 0.02 | 0.88 | 0.60 | 97 | 1012.8 |
| 20260510023045 | 67 | 0 | 0.0 | 0.0 | 0.03 | 0.88 | 0.60 | 97 | 1012.7 |
| 20260510021550 | 67 | 0 | 0.0 | 0.0 | 0.02 | 0.87 | 0.58 | 97 | 1012.4 |
| 20260510020045 | 67 | 0 | 0.0 | 0.0 | 0.03 | 0.87 | 0.58 | 97 | 1012.6 |
| 20260510014541 | 67 | 0 | 0.0 | 0.0 | 0.03 | 0.95 | 0.58 | 97 | 1012.8 |
| 20260510013047 | 67 | 0 | 0.0 | 0.9 | 0.03 | 0.94 | 0.57 | 97 | 1013.0 |
| 20260510011550 | 67 | 0 | 0.0 | 0.9 | 0.03 | 0.94 | 0.57 | 97 | 1012.3 |
| 20260510010037 | 67 | 0 | 0.0 | 0.0 | 0.03 | 0.93 | 0.56 | 97 | 1012.2 |
| 20260510004545 | 67 | 0 | 0.0 | 1.7 | 0.02 | 1.00 | 0.55 | 97 | 1011.8 |
| 20260510003046 | 67 | 0 | 0.0 | 0.9 | 0.02 | 0.99 | 0.54 | 97 | 1011.0 |
| 20260510001544 | 67 | 0 | 0.0 | 0.9 | 0.03 | 0.99 | 0.54 | 97 | 1012.0 |
| 20260510000049 | 66 | 0 | 0.0 | 0.0 | 0.02 | 0.98 | 0.52 | 97 | 1011.4 |
| 20260509234538 | 66 | 97 | 0.0 | 0.9 | 0.03 | 1.05 | 0.52 | 97 | 1011.4 |
| 20260509233037 | 66 | 0 | 0.0 | 0.0 | 0.03 | 1.04 | 0.52 | 97 | 1011.8 |
| 20260509231545 | 66 | 0 | 0.0 | 0.9 | 0.02 | 1.04 | 0.51 | 97 | 1011.8 |
| 20260509230044 | 66 | 0 | 0.0 | 0.0 | 0.03 | 1.04 | 0.51 | 97 | 1011.7 |
| 20260509224540 | 66 | 0 | 0.0 | 0.0 | 0.03 | 1.11 | 0.50 | 97 | 1012.0 |
| 20260509223039 | 66 | 0 | 0.0 | 0.0 | 0.02 | 1.10 | 0.49 | 97 | 1011.6 |
| 20260509221540 | 66 | 0 | 0.0 | 0.0 | 0.03 | 1.10 | 0.49 | 97 | 1011.3 |
| 20260509220048 | 66 | 0 | 0.0 | 0.9 | 0.03 | 1.09 | 0.48 | 97 | 1011.7 |
| 20260509214557 | 66 | 0 | 0.0 | 0.0 | 0.02 | 1.16 | 0.47 | 97 | 1011.8 |
| 20260509213045 | 66 | 0 | 0.0 | 0.9 | 0.03 | 1.16 | 0.47 | 97 | 1011.2 |
| 20260509211542 | 66 | 0 | 0.0 | 0.0 | 0.02 | 1.15 | 0.46 | 97 | 1011.3 |
| 20260509210045 | 66 | 0 | 0.0 | 0.0 | 0.02 | 1.14 | 0.45 | 97 | 1011.1 |
| 20260509204547 | 66 | 0 | 0.0 | 0.9 | 0.02 | 1.23 | 0.45 | 97 | 1010.7 |
| 20260509203057 | 66 | 94 | 0.9 | 1.7 | 0.02 | 1.22 | 0.44 | 97 | 1010.7 |
| 20260509201538 | 66 | 0 | 0.0 | 1.7 | 0.03 | 1.22 | 0.44 | 97 | 1012.0 |
| 20260509200045 | 66 | 110 | 0.0 | 0.9 | 0.02 | 1.21 | 0.43 | 97 | 1011.2 |
| 20260509194549 | 66 | 21 | 0.0 | 1.7 | 0.02 | 1.30 | 0.42 | 97 | 1012.2 |
| 20260509193043 | 66 | 0 | 0.0 | 0.0 | 0.02 | 1.30 | 0.42 | 97 | 1012.8 |
| 20260509191551 | 66 | 94 | 0.0 | 0.9 | 0.02 | 1.29 | 0.41 | 97 | 1012.1 |
| 20260509190037 | 66 | 0 | 0.0 | 0.9 | 0.02 | 1.29 | 0.41 | 97 | 1012.1 |
| 20260509184545 | 66 | 0 | 0.0 | 0.9 | 0.02 | 1.37 | 0.40 | 97 | 1012.2 |
| 20260509183053 | 65 | 0 | 0.0 | 0.0 | 0.03 | 1.37 | 0.40 | 97 | 1012.4 |
| 20260509181545 | 65 | 0 | 0.0 | 0.9 | 0.02 | 1.36 | 0.39 | 97 | 1012.2 |
| 20260509180044 | 65 | 0 | 0.0 | 0.0 | 0.02 | 1.36 | 0.39 | 97 | 1012.3 |
| 20260509174555 | 65 | 0 | 0.0 | 0.9 | 0.02 | 1.38 | 0.38 | 97 | 1012.3 |
| 20260509173049 | 65 | 0 | 0.0 | 1.7 | 0.01 | 1.37 | 0.37 | 97 | 1011.9 |
| 20260509171547 | 65 | 0 | 0.0 | 0.9 | 0.02 | 1.37 | 0.37 | 97 | 1012.3 |
| 20260509170045 | 65 | 0 | 0.0 | 0.9 | 0.02 | 1.37 | 0.37 | 97 | 1012.5 |